QPF
0.02 0.01 0.00 0.01 0.02 0.02 0.03 0.05 0.04 0.04 0.04 0.03 0.02 0.02 0.02 0.03 0.03 0.02 0.04 0.05 0.07 0.08 0.07 0.06 0.06 0.07 0.06 0.07 0.07 0.06 0.06 0.08 0.11 0.12 0.09 0.09 0.09 0.10 0.08 0.06 0.05 0.03 0.03
0.02 0.01 0.01 0.01 0.02 0.02 0.01 0.02 0.03 0.03 0.04 0.03 0.03 0.02 0.01 0.02 0.02 0.02 0.01 0.02 0.06 0.07 0.06 0.05 0.06 0.06 0.06 0.07 0.08 0.08 0.06 0.06 0.07 0.09 0.10 0.07 0.08 0.11 0.12 0.09 0.07 0.06 0.03
0.01 0.01 0.01 0.01 0.02 0.02 0.01 0.01 0.01 0.02 0.02 0.03 0.02 0.02 0.02 0.01 0.01 0.02 0.02 0.02 0.03 0.06 0.06 0.05 0.06 0.07 0.08 0.09 0.10 0.09 0.06 0.06 0.07 0.08 0.09 0.09 0.07 0.07 0.11 0.11 0.08 0.08 0.06
0.02 0.01 0.01 0.01 0.01 0.01 0.01 0.00 0.01 0.01 0.01 0.03 0.03 0.02 0.01 0.01 0.01 0.01 0.01 0.01 0.02 0.02 0.04 0.06 0.07 0.08 0.09 0.09 0.08 0.07 0.08 0.07 0.07 0.08 0.08 0.08 0.07 0.06 0.07 0.07 0.08 0.07 0.06
0.03 0.02 0.01 0.02 0.02 0.01 0.01 0.01 0.01 0.01 0.01 0.02 0.03 0.02 0.02 0.01 0.01 0.01 0.01 0.01 0.02 0.02 0.03 0.05 0.08 0.09 0.09 0.07 0.05 0.06 0.07 0.07 0.07 0.08 0.08 0.06 0.05 0.07 0.08 0.08 0.08 0.07 0.04
0.03 0.02 0.01 0.01 0.02 0.02 0.01 0.01 0.01 0.01 0.02 0.02 0.02 0.02 0.02 0.01 0.01 0.01 0.01 0.01 0.02 0.02 0.02 0.04 0.07 0.09 0.10 0.08 0.07 0.06 0.05 0.05 0.05 0.07 0.08 0.08 0.07 0.08 0.09 0.10 0.08 0.07 0.05
0.01 0.01 0.01 0.01 0.02 0.02 0.02 0.01 0.01 0.01 0.01 0.02 0.03 0.03 0.02 0.01 0.03 0.03 0.02 0.02 0.03 0.02 0.02 0.03 0.04 0.05 0.07 0.08 0.07 0.05 0.05 0.05 0.05 0.06 0.08 0.09 0.10 0.08 0.07 0.07 0.07 0.06 0.06
0.01 0.02 0.02 0.02 0.02 0.04 0.03 0.02 0.01 0.01 0.01 0.02 0.02 0.02 0.03 0.04 0.04 0.04 0.04 0.04 0.04 0.03 0.03 0.04 0.04 0.05 0.05 0.05 0.04 0.06 0.07 0.06 0.06 0.07 0.07 0.07 0.08 0.08 0.08 0.07 0.06 0.07 0.06
0.03 0.03 0.04 0.04 0.03 0.03 0.03 0.03 0.03 0.03 0.03 0.03 0.03 0.03 0.03 0.04 0.04 0.05 0.04 0.05 0.06 0.05 0.03 0.03 0.03 0.04 0.04 0.04 0.03 0.04 0.06 0.05 0.06 0.07 0.08 0.06 0.05 0.05 0.06 0.08 0.08 0.08 0.07
0.03 0.03 0.04 0.04 0.04 0.04 0.04 0.04 0.04 0.04 0.04 0.04 0.05 0.04 0.04 0.03 0.04 0.05 0.04 0.05 0.06 0.06 0.04 0.03 0.03 0.04 0.04 0.03 0.03 0.03 0.05 0.07 0.07 0.07 0.07 0.05 0.05 0.04 0.04 0.06 0.07 0.08 0.07
0.03 0.03 0.04 0.05 0.05 0.06 0.06 0.05 0.05 0.05 0.08 0.07 0.06 0.05 0.04 0.04 0.05 0.06 0.05 0.05 0.05 0.04 0.04 0.04 0.04 0.05 0.06 0.05 0.05 0.04 0.07 0.12 0.10 0.06 0.05 0.05 0.04 0.04 0.05 0.05 0.07 0.07 0.07
0.03 0.03 0.04 0.03 0.04 0.06 0.08 0.07 0.06 0.08 0.10 0.11 0.09 0.07 0.06 0.05 0.05 0.06 0.06 0.06 0.05 0.05 0.06 0.06 0.05 0.06 0.06 0.05 0.06 0.07 0.10 0.15 0.13 0.10 0.07 0.04 0.03 0.02 0.02 0.03 0.03 0.04 0.04
0.02 0.02 0.03 0.03 0.04 0.04 0.05 0.05 0.04 0.04 0.06 0.07 0.07 0.07 0.07 0.06 0.06 0.05 0.05 0.05 0.05 0.03 0.04 0.05 0.06 0.07 0.07 0.08 0.07 0.08 0.08 0.14 0.16 0.11 0.08 0.05 0.04 0.03 0.03 0.03 0.03 0.03 0.03
0.02 0.02 0.03 0.03 0.02 0.02 0.03 0.03 0.03 0.03 0.03 0.04 0.04 0.04 0.05 0.05 0.05 0.06 0.06 0.04 0.04 0.04 0.03 0.03 0.03 0.04 0.05 0.06 0.06 0.05 0.05 0.10 0.14 0.12 0.08 0.04 0.04 0.04 0.03 0.03 0.03 0.03 0.03
0.02 0.02 0.02 0.02 0.02 0.02 0.02 0.03 0.03 0.03 0.03 0.03 0.03 0.02 0.02 0.03 0.03 0.04 0.05 0.04 0.04 0.04 0.04 0.04 0.04 0.05 0.04 0.03 0.04 0.03 0.05 0.07 0.10 0.11 0.07 0.03 0.02 0.02 0.02 0.01 0.01 0.01 0.01
0.02 0.02 0.01 0.01 0.01 0.01 0.01 0.02 0.02 0.03 0.02 0.02 0.02 0.02 0.01 0.02 0.02 0.03 0.03 0.03 0.03 0.03 0.04 0.05 0.06 0.06 0.05 0.03 0.02 0.02 0.05 0.06 0.08 0.11 0.08 0.04 0.01 0.01 0.01 0.01 0.01 0.01 0.01
0.02 0.01 0.01 0.01 0.01 0.01 0.01 0.01 0.01 0.02 0.02 0.02 0.01 0.01 0.01 0.02 0.02 0.02 0.02 0.02 0.02 0.03 0.04 0.06 0.06 0.05 0.04 0.02 0.02 0.02 0.04 0.03 0.04 0.08 0.10 0.05 0.02 0.01 0.01 0.01 0.01 0.01 0.01
0.02 0.02 0.02 0.02 0.02 0.01 0.01 0.01 0.01 0.01 0.01 0.01 0.01 0.01 0.01 0.02 0.02 0.01 0.01 0.02 0.03 0.04 0.04 0.04 0.03 0.03 0.02 0.02 0.01 0.01 0.02 0.01 0.03 0.05 0.09 0.08 0.03 0.01 0.00 0.01 0.01 0.01 0.01
0.02 0.02 0.02 0.02 0.02 0.02 0.01 0.01 0.01 0.01 0.01 0.01 0.02 0.02 0.03 0.03 0.01 0.01 0.01 0.01 0.02 0.04 0.04 0.03 0.03 0.03 0.02 0.01 0.01 0.01 0.01 0.01 0.02 0.03 0.06 0.08 0.05 0.01 0.00 0.01 0.01 0.01 0.01
0.02 0.02 0.02 0.02 0.01 0.01 0.01 0.01 0.01 0.02 0.02 0.02 0.02 0.04 0.04 0.04 0.03 0.02 0.02 0.02 0.02 0.03 0.03 0.03 0.03 0.02 0.02 0.01 0.01 0.01 0.01 0.02 0.02 0.03 0.05 0.07 0.05 0.03 0.02 0.01 0.01 0.01 0.01
0.02 0.02 0.01 0.01 0.01 0.01 0.01 0.01 0.01 0.01 0.02 0.02 0.03 0.04 0.04 0.05 0.05 0.03 0.02 0.03 0.03 0.04 0.04 0.03 0.03 0.03 0.02 0.01 0.01 0.01 0.01 0.01 0.01 0.02 0.03 0.04 0.04 0.04 0.02 0.02 0.02 0.02 0.02
0.02 0.02 0.01 0.01 0.01 0.01 0.01 0.01 0.02 0.01 0.01 0.02 0.02 0.03 0.04 0.04 0.04 0.04 0.04 0.04 0.03 0.03 0.03 0.03 0.02 0.02 0.01 0.01 0.02 0.01 0.01 0.01 0.01 0.01 0.02 0.02 0.03 0.03 0.02 0.02 0.02 0.02 0.02
0.04 0.03 0.03 0.02 0.01 0.01 0.02 0.02 0.03 0.02 0.02 0.02 0.02 0.02 0.02 0.02 0.02 0.03 0.03 0.03 0.03 0.03 0.03 0.03 0.02 0.01 0.01 0.01 0.02 0.02 0.02 0.01 0.01 0.01 0.02 0.02 0.02 0.02 0.02 0.02 0.02 0.02 0.03
0.05 0.04 0.04 0.03 0.02 0.02 0.05 0.05 0.05 0.04 0.04 0.03 0.02 0.02 0.02 0.03 0.03 0.03 0.04 0.03 0.02 0.02 0.03 0.03 0.02 0.01 0.02 0.01 0.02 0.02 0.02 0.02 0.01 0.01 0.02 0.02 0.02 0.02 0.02 0.02 0.03 0.03 0.03
0.08 0.07 0.06 0.06 0.05 0.07 0.10 0.12 0.11 0.08 0.06 0.04 0.03 0.03 0.02 0.02 0.03 0.04 0.04 0.03 0.02 0.02 0.03 0.03 0.03 0.02 0.02 0.03 0.03 0.03 0.02 0.02 0.01 0.01 0.02 0.02 0.01 0.02 0.02 0.02 0.02 0.03 0.04
0.09 0.10 0.08 0.08 0.09 0.09 0.10 0.11 0.13 0.10 0.08 0.06 0.05 0.04 0.04 0.03 0.04 0.04 0.03 0.02 0.02 0.02 0.02 0.03 0.03 0.03 0.03 0.03 0.04 0.03 0.03 0.03 0.02 0.02 0.02 0.02 0.02 0.03 0.02 0.01 0.01 0.01 0.03
MSLP
1017.15 1017.09 1016.97 1016.83 1016.72 1016.65 1016.67 1016.77 1016.94 1017.17 1017.42 1017.66 1017.87 1018.03 1018.13 1018.17 1018.15 1018.06 1017.90 1017.68 1017.39 1017.05 1016.68 1016.33 1016.04 1015.85 1015.80 1015.89 1016.14 1016.49 1016.93 1017.39 1017.83 1018.21 1018.52 1018.75 1018.93 1019.08 1019.22 1019.38 1019.57 1019.77 1019.99
1017.18 1017.16 1017.12 1017.08 1017.06 1017.09 1017.18 1017.33 1017.54 1017.78 1018.03 1018.27 1018.48 1018.64 1018.75 1018.79 1018.77 1018.69 1018.52 1018.29 1017.99 1017.65 1017.28 1016.92 1016.61 1016.39 1016.30 1016.34 1016.52 1016.81 1017.19 1017.59 1018.00 1018.37 1018.68 1018.94 1019.14 1019.32 1019.47 1019.62 1019.79 1019.96 1020.14
1017.11 1017.15 1017.20 1017.27 1017.36 1017.50 1017.67 1017.89 1018.13 1018.38 1018.63 1018.87 1019.07 1019.23 1019.34 1019.39 1019.38 1019.30 1019.15 1018.93 1018.64 1018.30 1017.94 1017.59 1017.28 1017.05 1016.93 1016.93 1017.04 1017.27 1017.57 1017.92 1018.29 1018.63 1018.95 1019.21 1019.44 1019.63 1019.80 1019.95 1020.10 1020.25 1020.40
1016.95 1017.05 1017.20 1017.38 1017.60 1017.84 1018.11 1018.38 1018.65 1018.92 1019.16 1019.39 1019.58 1019.74 1019.86 1019.93 1019.94 1019.88 1019.75 1019.55 1019.29 1018.98 1018.64 1018.31 1018.02 1017.79 1017.65 1017.61 1017.68 1017.84 1018.08 1018.36 1018.68 1018.99 1019.29 1019.56 1019.79 1020.00 1020.18 1020.33 1020.48 1020.61 1020.74
1016.73 1016.89 1017.12 1017.41 1017.73 1018.08 1018.42 1018.74 1019.04 1019.31 1019.56 1019.78 1019.97 1020.15 1020.28 1020.38 1020.43 1020.40 1020.31 1020.15 1019.93 1019.66 1019.36 1019.06 1018.79 1018.57 1018.43 1018.37 1018.39 1018.50 1018.67 1018.89 1019.15 1019.42 1019.70 1019.95 1020.19 1020.40 1020.59 1020.75 1020.89 1021.02 1021.14
1016.48 1016.67 1016.97 1017.34 1017.75 1018.17 1018.58 1018.94 1019.26 1019.53 1019.78 1020.00 1020.21 1020.40 1020.58 1020.72 1020.81 1020.84 1020.81 1020.70 1020.52 1020.30 1020.05 1019.80 1019.56 1019.37 1019.23 1019.16 1019.15 1019.21 1019.33 1019.49 1019.69 1019.92 1020.15 1020.39 1020.62 1020.82 1021.01 1021.17 1021.32 1021.44 1021.56
1016.23 1016.44 1016.77 1017.19 1017.65 1018.12 1018.56 1018.94 1019.27 1019.55 1019.81 1020.04 1020.27 1020.51 1020.73 1020.93 1021.09 1021.19 1021.21 1021.17 1021.05 1020.89 1020.69 1020.49 1020.29 1020.13 1020.01 1019.94 1019.91 1019.94 1020.01 1020.12 1020.27 1020.45 1020.65 1020.86 1021.06 1021.26 1021.44 1021.60 1021.74 1021.86 1021.98
1016.00 1016.20 1016.54 1016.97 1017.45 1017.93 1018.38 1018.77 1019.10 1019.38 1019.64 1019.90 1020.17 1020.45 1020.73 1021.00 1021.24 1021.41 1021.51 1021.53 1021.48 1021.38 1021.24 1021.09 1020.94 1020.81 1020.72 1020.65 1020.62 1020.63 1020.67 1020.75 1020.85 1020.99 1021.15 1021.33 1021.51 1021.69 1021.86 1022.02 1022.15 1022.27 1022.38
1015.80 1015.97 1016.28 1016.70 1017.16 1017.62 1018.05 1018.43 1018.75 1019.04 1019.31 1019.60 1019.90 1020.24 1020.59 1020.93 1021.24 1021.48 1021.66 1021.75 1021.77 1021.73 1021.65 1021.55 1021.45 1021.37 1021.30 1021.25 1021.23 1021.23 1021.26 1021.31 1021.39 1021.50 1021.63 1021.78 1021.95 1022.11 1022.27 1022.41 1022.54 1022.65 1022.76
1015.62 1015.75 1016.02 1016.39 1016.80 1017.22 1017.62 1017.97 1018.28 1018.56 1018.84 1019.15 1019.50 1019.88 1020.29 1020.70 1021.07 1021.39 1021.63 1021.79 1021.87 1021.89 1021.87 1021.83 1021.78 1021.74 1021.71 1021.69 1021.68 1021.69 1021.72 1021.76 1021.83 1021.92 1022.05 1022.19 1022.34 1022.50 1022.65 1022.78 1022.90 1023.00 1023.10
1015.43 1015.52 1015.74 1016.04 1016.40 1016.77 1017.11 1017.42 1017.71 1017.98 1018.27 1018.59 1018.97 1019.39 1019.84 1020.29 1020.72 1021.09 1021.39 1021.61 1021.75 1021.83 1021.87 1021.89 1021.89 1021.90 1021.91 1021.93 1021.95 1021.98 1022.02 1022.07 1022.15 1022.25 1022.37 1022.52 1022.67 1022.83 1022.98 1023.11 1023.22 1023.31 1023.40
1015.21 1015.27 1015.43 1015.67 1015.96 1016.26 1016.55 1016.83 1017.08 1017.34 1017.62 1017.95 1018.33 1018.77 1019.24 1019.72 1020.18 1020.59 1020.94 1021.20 1021.40 1021.54 1021.64 1021.72 1021.78 1021.84 1021.90 1021.97 1022.03 1022.09 1022.16 1022.23 1022.33 1022.45 1022.59 1022.75 1022.92 1023.09 1023.24 1023.38 1023.49 1023.58 1023.65
1014.93 1014.96 1015.07 1015.26 1015.48 1015.72 1015.96 1016.19 1016.41 1016.65 1016.91 1017.23 1017.61 1018.04 1018.51 1018.99 1019.46 1019.89 1020.27 1020.58 1020.83 1021.03 1021.19 1021.33 1021.47 1021.59 1021.71 1021.82 1021.93 1022.04 1022.14 1022.26 1022.39 1022.54 1022.71 1022.89 1023.08 1023.27 1023.45 1023.59 1023.71 1023.80 1023.87
1014.56 1014.57 1014.66 1014.79 1014.97 1015.16 1015.34 1015.53 1015.72 1015.92 1016.16 1016.45 1016.80 1017.21 1017.65 1018.12 1018.58 1019.01 1019.41 1019.75 1020.05 1020.32 1020.55 1020.77 1020.98 1021.18 1021.36 1021.54 1021.71 1021.86 1022.02 1022.17 1022.34 1022.53 1022.73 1022.95 1023.17 1023.39 1023.58 1023.74 1023.88 1023.98 1024.05
1014.10 1014.11 1014.17 1014.27 1014.40 1014.55 1014.70 1014.85 1015.00 1015.18 1015.38 1015.64 1015.95 1016.31 1016.71 1017.14 1017.58 1018.00 1018.41 1018.78 1019.13 1019.46 1019.77 1020.07 1020.36 1020.64 1020.91 1021.16 1021.39 1021.61 1021.81 1022.02 1022.23 1022.46 1022.69 1022.94 1023.19 1023.43 1023.64 1023.83 1023.98 1024.10 1024.19
1013.54 1013.56 1013.61 1013.69 1013.80 1013.91 1014.03 1014.15 1014.28 1014.42 1014.59 1014.80 1015.06 1015.37 1015.72 1016.10 1016.50 1016.91 1017.31 1017.71 1018.11 1018.50 1018.89 1019.27 1019.65 1020.02 1020.38 1020.71 1021.01 1021.29 1021.56 1021.81 1022.07 1022.33 1022.60 1022.88 1023.15 1023.40 1023.64 1023.84 1024.01 1024.15 1024.26
1012.90 1012.93 1012.98 1013.05 1013.14 1013.24 1013.34 1013.43 1013.54 1013.65 1013.78 1013.95 1014.16 1014.41 1014.71 1015.04 1015.39 1015.78 1016.17 1016.59 1017.02 1017.47 1017.93 1018.39 1018.86 1019.32 1019.76 1020.18 1020.56 1020.91 1021.24 1021.55 1021.85 1022.15 1022.44 1022.74 1023.03 1023.30 1023.54 1023.76 1023.95 1024.11 1024.24
1012.21 1012.25 1012.31 1012.38 1012.46 1012.55 1012.63 1012.71 1012.80 1012.88 1012.99 1013.12 1013.28 1013.47 1013.71 1013.98 1014.30 1014.65 1015.03 1015.45 1015.90 1016.39 1016.90 1017.43 1017.98 1018.52 1019.04 1019.54 1020.00 1020.42 1020.82 1021.18 1021.53 1021.86 1022.18 1022.50 1022.80 1023.08 1023.33 1023.56 1023.76 1023.95 1024.11
1011.49 1011.55 1011.62 1011.69 1011.78 1011.86 1011.94 1012.01 1012.07 1012.14 1012.21 1012.30 1012.42 1012.56 1012.75 1012.97 1013.23 1013.54 1013.89 1014.29 1014.75 1015.25 1015.79 1016.37 1016.97 1017.57 1018.17 1018.73 1019.27 1019.77 1020.23 1020.65 1021.05 1021.42 1021.77 1022.10 1022.42 1022.71 1022.97 1023.21 1023.43 1023.64 1023.83
1010.80 1010.88 1010.96 1011.04 1011.13 1011.21 1011.28 1011.34 1011.38 1011.43 1011.47 1011.53 1011.60 1011.69 1011.82 1011.99 1012.20 1012.45 1012.76 1013.13 1013.56 1014.05 1014.59 1015.18 1015.81 1016.45 1017.09 1017.72 1018.31 1018.88 1019.41 1019.90 1020.35 1020.77 1021.16 1021.52 1021.85 1022.16 1022.44 1022.70 1022.94 1023.17 1023.39
1010.19 1010.28 1010.37 1010.47 1010.55 1010.63 1010.69 1010.73 1010.75 1010.77 1010.77 1010.79 1010.82 1010.87 1010.94 1011.05 1011.20 1011.40 1011.65 1011.96 1012.34 1012.79 1013.30 1013.87 1014.48 1015.13 1015.80 1016.46 1017.11 1017.74 1018.33 1018.88 1019.39 1019.87 1020.31 1020.71 1021.08 1021.42 1021.73 1022.01 1022.28 1022.55 1022.81
1009.70 1009.81 1009.91 1010.01 1010.09 1010.15 1010.19 1010.20 1010.19 1010.16 1010.13 1010.10 1010.08 1010.08 1010.10 1010.15 1010.24 1010.37 1010.55 1010.79 1011.10 1011.48 1011.93 1012.45 1013.03 1013.65 1014.32 1015.00 1015.68 1016.35 1017.00 1017.61 1018.19 1018.73 1019.23 1019.69 1020.11 1020.49 1020.84 1021.17 1021.49 1021.80 1022.11
1009.36 1009.49 1009.61 1009.70 1009.77 1009.81 1009.80 1009.77 1009.71 1009.63 1009.54 1009.46 1009.39 1009.33 1009.30 1009.29 1009.31 1009.37 1009.48 1009.64 1009.86 1010.16 1010.53 1010.97 1011.49 1012.08 1012.72 1013.39 1014.09 1014.79 1015.48 1016.16 1016.80 1017.41 1017.97 1018.49 1018.98 1019.42 1019.83 1020.22 1020.60 1020.97 1021.34
1009.21 1009.35 1009.46 1009.55 1009.59 1009.59 1009.53 1009.44 1009.31 1009.16 1009.01 1008.86 1008.73 1008.62 1008.53 1008.46 1008.42 1008.42 1008.45 1008.53 1008.67 1008.88 1009.16 1009.52 1009.97 1010.50 1011.10 1011.75 1012.44 1013.16 1013.89 1014.61 1015.30 1015.97 1016.60 1017.19 1017.75 1018.26 1018.74 1019.20 1019.65 1020.09 1020.53
1009.22 1009.36 1009.47 1009.53 1009.53 1009.47 1009.35 1009.18 1008.98 1008.75 1008.52 1008.31 1008.11 1007.94 1007.79 1007.67 1007.58 1007.52 1007.49 1007.50 1007.56 1007.69 1007.89 1008.18 1008.55 1009.02 1009.57 1010.19 1010.87 1011.58 1012.33 1013.07 1013.81 1014.53 1015.22 1015.87 1016.49 1017.07 1017.63 1018.16 1018.68 1019.19 1019.71
1009.36 1009.48 1009.56 1009.58 1009.53 1009.40 1009.21 1008.96 1008.67 1008.37 1008.07 1007.78 1007.52 1007.29 1007.10 1006.93 1006.80 1006.69 1006.61 1006.56 1006.57 1006.63 1006.77 1006.99 1007.30 1007.71 1008.21 1008.79 1009.44 1010.15 1010.89 1011.65 1012.41 1013.16 1013.88 1014.58 1015.25 1015.89 1016.51 1017.11 1017.71 1018.29 1018.87
Thickness
5774 5773 5772 5772 5771 5771 5770 5770 5769 5768 5767 5766 5765 5763 5763 5762 5761 5760 5760 5760 5759 5757 5756 5754 5753 5752 5750 5748 5747 5745 5743 5741 5740 5739 5737 5736 5734 5733 5731 5730 5728 5727 5726
5773 5772 5771 5770 5770 5769 5769 5768 5767 5766 5765 5764 5763 5762 5762 5761 5760 5760 5759 5759 5758 5757 5756 5755 5753 5752 5750 5748 5747 5745 5743 5741 5740 5738 5737 5736 5734 5732 5731 5729 5728 5726 5725
5772 5771 5770 5769 5769 5768 5767 5767 5766 5765 5763 5762 5761 5761 5760 5760 5759 5759 5759 5758 5757 5756 5755 5754 5753 5751 5750 5748 5746 5745 5743 5741 5739 5738 5737 5735 5734 5732 5730 5729 5727 5726 5725
5772 5771 5769 5768 5768 5767 5766 5764 5763 5762 5760 5759 5758 5758 5758 5758 5758 5757 5757 5757 5756 5755 5754 5753 5751 5750 5748 5747 5745 5744 5742 5740 5739 5738 5737 5735 5734 5732 5730 5729 5727 5725 5724
5772 5770 5768 5767 5766 5765 5763 5763 5761 5759 5757 5756 5756 5756 5756 5755 5755 5755 5754 5754 5753 5752 5751 5750 5749 5748 5747 5746 5744 5742 5741 5739 5738 5736 5735 5734 5733 5732 5730 5728 5726 5725 5723
5772 5770 5768 5766 5764 5763 5761 5760 5758 5757 5755 5754 5754 5753 5752 5752 5752 5751 5751 5751 5750 5749 5748 5747 5746 5746 5745 5743 5742 5740 5739 5737 5736 5735 5734 5733 5732 5731 5730 5728 5726 5724 5723
5771 5769 5767 5764 5763 5761 5759 5758 5756 5754 5752 5751 5749 5747 5748 5749 5748 5748 5748 5747 5747 5746 5745 5744 5743 5742 5741 5740 5739 5738 5737 5736 5735 5733 5732 5731 5730 5729 5728 5726 5724 5723 5721
5770 5768 5765 5763 5761 5759 5757 5755 5754 5751 5749 5748 5744 5740 5737 5738 5742 5744 5743 5742 5742 5742 5741 5741 5740 5739 5737 5736 5736 5735 5734 5733 5733 5732 5731 5729 5728 5727 5726 5724 5723 5721 5719
5768 5767 5765 5762 5760 5758 5755 5754 5752 5749 5745 5744 5743 5738 5732 5729 5732 5736 5737 5737 5737 5737 5737 5736 5736 5735 5734 5733 5733 5732 5731 5730 5729 5729 5728 5727 5726 5724 5723 5722 5721 5719 5718
5767 5765 5763 5761 5758 5756 5754 5752 5750 5747 5744 5740 5740 5738 5736 5733 5728 5726 5729 5731 5732 5732 5732 5733 5732 5731 5731 5730 5729 5729 5727 5727 5726 5726 5725 5724 5723 5721 5720 5719 5718 5717 5715
5765 5763 5761 5759 5757 5755 5752 5750 5748 5746 5743 5740 5738 5736 5733 5731 5729 5724 5721 5724 5726 5728 5728 5728 5728 5727 5727 5726 5726 5725 5724 5723 5722 5722 5721 5720 5719 5718 5717 5716 5715 5714 5712
5762 5761 5759 5757 5755 5753 5750 5748 5746 5744 5741 5739 5737 5735 5731 5728 5725 5722 5719 5718 5719 5722 5724 5724 5724 5723 5723 5722 5721 5721 5720 5718 5717 5717 5716 5716 5715 5714 5713 5711 5711 5710 5709
5759 5758 5757 5755 5753 5751 5749 5746 5744 5742 5740 5737 5735 5733 5731 5729 5726 5723 5719 5716 5715 5716 5718 5719 5720 5719 5718 5718 5717 5716 5715 5714 5713 5712 5712 5712 5710 5709 5708 5707 5706 5705 5704
5758 5757 5755 5753 5751 5749 5747 5744 5742 5739 5738 5736 5734 5731 5729 5727 5725 5723 5719 5715 5711 5710 5711 5713 5715 5715 5714 5714 5713 5712 5711 5710 5709 5707 5707 5707 5706 5705 5703 5702 5701 5699 5698
5757 5755 5753 5751 5749 5747 5744 5742 5739 5736 5735 5732 5731 5729 5727 5725 5723 5721 5719 5717 5712 5706 5705 5708 5709 5711 5710 5709 5709 5708 5706 5706 5704 5703 5702 5702 5700 5699 5698 5697 5695 5694 5693
5755 5753 5751 5748 5746 5744 5741 5739 5736 5733 5731 5729 5727 5725 5723 5722 5720 5718 5716 5714 5712 5708 5703 5705 5705 5706 5705 5705 5704 5702 5702 5701 5700 5698 5697 5696 5695 5694 5693 5691 5690 5689 5688
5752 5750 5747 5744 5742 5740 5738 5735 5733 5730 5728 5725 5723 5721 5719 5717 5715 5713 5712 5710 5707 5704 5701 5701 5700 5701 5700 5699 5698 5697 5696 5695 5694 5693 5691 5690 5689 5688 5687 5686 5685 5683 5683
5749 5747 5744 5741 5739 5737 5735 5732 5729 5727 5724 5721 5719 5717 5715 5713 5710 5708 5706 5704 5702 5700 5697 5695 5694 5694 5694 5694 5693 5691 5690 5689 5688 5688 5686 5685 5684 5683 5682 5681 5680 5679 5678
5746 5743 5740 5738 5736 5733 5731 5728 5726 5724 5721 5718 5716 5713 5711 5708 5705 5703 5701 5699 5698 5696 5693 5691 5689 5688 5688 5687 5686 5685 5685 5683 5683 5682 5681 5681 5680 5679 5678 5676 5675 5674 5673
5742 5740 5737 5734 5732 5730 5727 5725 5722 5719 5717 5715 5712 5710 5708 5705 5702 5699 5697 5695 5693 5690 5687 5685 5683 5682 5681 5680 5679 5678 5677 5676 5676 5676 5676 5676 5675 5674 5673 5671 5670 5669 5668
5739 5736 5733 5730 5728 5726 5723 5721 5718 5715 5712 5710 5708 5706 5704 5702 5700 5697 5694 5691 5688 5685 5682 5680 5678 5676 5675 5673 5673 5672 5670 5670 5669 5669 5670 5670 5669 5668 5667 5666 5665 5664 5663
5733 5731 5729 5726 5723 5722 5720 5717 5714 5711 5708 5705 5703 5701 5699 5697 5695 5692 5690 5688 5686 5682 5679 5676 5674 5672 5671 5670 5668 5667 5665 5663 5662 5664 5663 5663 5663 5662 5661 5661 5660 5659 5658
5728 5725 5723 5721 5718 5717 5715 5712 5709 5706 5703 5700 5698 5695 5694 5693 5690 5687 5685 5683 5681 5680 5678 5674 5672 5670 5669 5667 5664 5662 5661 5659 5658 5659 5656 5656 5656 5656 5656 5655 5655 5654 5653
5722 5719 5717 5715 5713 5712 5709 5707 5704 5701 5698 5695 5692 5690 5688 5686 5684 5681 5679 5678 5676 5675 5674 5672 5670 5669 5667 5664 5661 5659 5657 5654 5654 5652 5650 5649 5650 5649 5651 5650 5650 5649 5648
5716 5713 5711 5709 5707 5705 5703 5701 5697 5694 5692 5689 5687 5685 5682 5680 5678 5675 5673 5671 5670 5670 5669 5668 5667 5665 5663 5660 5657 5653 5650 5648 5647 5647 5645 5644 5645 5644 5644 5645 5645 5644 5643
5710 5707 5705 5703 5701 5698 5696 5694 5691 5688 5685 5683 5681 5678 5676 5673 5671 5669 5666 5664 5663 5663 5662 5661 5659 5658 5657 5655 5652 5650 5647 5643 5642 5641 5642 5639 5639 5637 5638 5640 5640 5639 5638